TimeEST,TemperatureF,Dew PointF,Humidity,Sea Level PressureIn,VisibilityMPH,Wind Direction,Wind SpeedMPH,Gust SpeedMPH,PrecipitationIn,Events,Conditions,WindDirDegrees,DateUTC
12:15 AM,35.6,24.8,65,30.32,10.0,Calm,Calm,-,N/A,,Clear,0,2012-11-30 05:15:00
12:35 AM,33.8,24.8,70,30.32,10.0,SW,3.5,-,N/A,,Clear,230,2012-11-30 05:35:00
12:55 AM,33.8,24.8,70,30.32,10.0,Calm,Calm,-,N/A,,Clear,0,2012-11-30 05:55:00
1:15 AM,33.8,24.8,70,30.32,10.0,Calm,Calm,-,N/A,,Clear,0,2012-11-30 06:15:00
1:35 AM,33.8,24.8,70,30.32,10.0,Calm,Calm,-,N/A,,Clear,0,2012-11-30 06:35:00
1:55 AM,33.8,24.8,70,30.32,10.0,Calm,Calm,-,N/A,,Clear,0,2012-11-30 06:55:00
2:15 AM,33.8,24.8,70,30.32,10.0,Calm,Calm,-,N/A,,Clear,0,2012-11-30 07:15:00
2:35 AM,32.0,24.8,75,30.31,10.0,Calm,Calm,-,N/A,,Clear,0,2012-11-30 07:35:00
2:55 AM,32.0,24.8,75,30.31,10.0,Calm,Calm,-,N/A,,Clear,0,2012-11-30 07:55:00
3:15 AM,33.8,24.8,70,30.30,10.0,South,3.5,-,N/A,,Clear,190,2012-11-30 08:15:00
3:35 AM,33.8,26.6,75,30.30,10.0,Calm,Calm,-,N/A,,Clear,0,2012-11-30 08:35:00
3:55 AM,33.8,26.6,75,30.29,10.0,SW,3.5,-,N/A,,Clear,220,2012-11-30 08:55:00
4:15 AM,30.2,24.8,80,30.29,10.0,SSW,3.5,-,N/A,,Clear,200,2012-11-30 09:15:00
4:35 AM,28.4,24.8,86,30.29,10.0,Calm,Calm,-,N/A,,Clear,0,2012-11-30 09:35:00
4:55 AM,28.4,24.8,86,30.29,10.0,Calm,Calm,-,N/A,,Clear,0,2012-11-30 09:55:00
5:15 AM,28.4,26.6,93,30.29,10.0,Calm,Calm,-,N/A,,Clear,0,2012-11-30 10:15:00
5:35 AM,28.4,24.8,86,30.30,10.0,Calm,Calm,-,N/A,,Clear,0,2012-11-30 10:35:00
5:55 AM,26.6,24.8,93,30.30,10.0,Calm,Calm,-,N/A,,Clear,0,2012-11-30 10:55:00
6:15 AM,28.4,24.8,86,30.30,10.0,Calm,Calm,-,N/A,,Clear,0,2012-11-30 11:15:00
6:35 AM,26.6,24.8,93,30.31,10.0,Calm,Calm,-,N/A,,Clear,0,2012-11-30 11:35:00
6:55 AM,26.6,24.8,93,30.31,10.0,Calm,Calm,-,N/A,,Clear,0,2012-11-30 11:55:00
7:15 AM,26.6,24.8,93,30.32,10.0,Calm,Calm,-,N/A,,Clear,0,2012-11-30 12:15:00
7:35 AM,26.6,24.8,93,30.33,7.0,Calm,Calm,-,N/A,,Clear,0,2012-11-30 12:35:00
7:55 AM,26.6,24.8,93,30.33,7.0,Calm,Calm,-,N/A,,Clear,0,2012-11-30 12:55:00
8:15 AM,30.2,26.6,86,30.34,10.0,Calm,Calm,-,N/A,,Clear,0,2012-11-30 13:15:00
8:35 AM,33.8,28.4,81,30.34,10.0,Calm,Calm,-,N/A,,Clear,0,2012-11-30 13:35:00
8:55 AM,35.6,28.4,75,30.34,10.0,Calm,Calm,-,N/A,,Clear,0,2012-11-30 13:55:00
9:15 AM,37.4,28.4,70,30.34,10.0,Calm,Calm,-,N/A,,Clear,0,2012-11-30 14:15:00
9:35 AM,39.2,30.2,70,30.34,10.0,WNW,3.5,-,N/A,,Clear,290,2012-11-30 14:35:00
9:55 AM,39.2,28.4,65,30.35,10.0,NW,3.5,-,N/A,,Clear,310,2012-11-30 14:55:00
10:15 AM,41.0,28.4,61,30.35,10.0,Calm,Calm,-,N/A,,Clear,0,2012-11-30 15:15:00
10:35 AM,42.8,28.4,57,30.35,10.0,North,4.6,-,N/A,,Clear,360,2012-11-30 15:35:00
10:55 AM,44.6,28.4,53,30.34,10.0,Calm,Calm,-,N/A,,Clear,0,2012-11-30 15:55:00
11:15 AM,46.4,28.4,50,30.34,10.0,Calm,Calm,-,N/A,,Clear,0,2012-11-30 16:15:00
11:35 AM,48.2,30.2,50,30.33,10.0,Calm,Calm,-,N/A,,Clear,0,2012-11-30 16:35:00
11:55 AM,50.0,30.2,47,30.32,10.0,Calm,Calm,-,N/A,,Clear,0,2012-11-30 16:55:00
12:15 PM,50.0,30.2,47,30.32,10.0,Calm,Calm,-,N/A,,Clear,0,2012-11-30 17:15:00
12:35 PM,51.8,30.2,44,30.30,10.0,Calm,Calm,-,N/A,,Clear,0,2012-11-30 17:35:00
12:55 PM,51.8,30.2,44,30.30,10.0,Calm,Calm,-,N/A,,Clear,0,2012-11-30 17:55:00
1:15 PM,51.8,30.2,44,30.30,10.0,NW,4.6,-,N/A,,Clear,320,2012-11-30 18:15:00
1:35 PM,51.8,28.4,41,30.29,10.0,Calm,Calm,-,N/A,,Clear,0,2012-11-30 18:35:00
1:55 PM,51.8,28.4,41,30.29,10.0,NNE,3.5,-,N/A,,Clear,20,2012-11-30 18:55:00
2:15 PM,51.8,28.4,41,30.28,10.0,Calm,Calm,-,N/A,,Clear,0,2012-11-30 19:15:00
2:35 PM,51.8,28.4,41,30.28,10.0,Calm,Calm,-,N/A,,Clear,0,2012-11-30 19:35:00
2:55 PM,51.8,30.2,44,30.28,10.0,Calm,Calm,-,N/A,,Clear,0,2012-11-30 19:55:00
3:15 PM,51.8,30.2,44,30.28,10.0,Calm,Calm,-,N/A,,Clear,0,2012-11-30 20:15:00
3:35 PM,51.8,30.2,44,30.28,10.0,North,3.5,-,N/A,,Clear,10,2012-11-30 20:35:00
3:55 PM,51.8,28.4,41,30.28,10.0,NE,3.5,-,N/A,,Clear,50,2012-11-30 20:55:00
4:15 PM,48.2,30.2,50,30.28,10.0,Calm,Calm,-,N/A,,Clear,0,2012-11-30 21:15:00
4:35 PM,44.6,35.6,71,30.28,10.0,Calm,Calm,-,N/A,,Clear,0,2012-11-30 21:35:00
4:55 PM,42.8,33.8,70,30.28,10.0,Calm,Calm,-,N/A,,Clear,0,2012-11-30 21:55:00
5:15 PM,41.0,33.8,76,30.29,10.0,Calm,Calm,-,N/A,,Clear,0,2012-11-30 22:15:00
5:35 PM,37.4,32.0,81,30.29,10.0,Calm,Calm,-,N/A,,Clear,0,2012-11-30 22:35:00
5:55 PM,39.2,32.0,75,30.30,10.0,Calm,Calm,-,N/A,,Clear,0,2012-11-30 22:55:00
6:15 PM,37.4,30.2,75,30.30,10.0,Calm,Calm,-,N/A,,Clear,0,2012-11-30 23:15:00
6:35 PM,37.4,30.2,75,30.30,10.0,Calm,Calm,-,N/A,,Clear,0,2012-11-30 23:35:00
6:55 PM,39.2,30.2,70,30.31,10.0,Calm,Calm,-,N/A,,Clear,0,2012-11-30 23:55:00
7:15 PM,37.4,30.2,75,30.31,10.0,Calm,Calm,-,N/A,,Clear,0,2012-12-01 00:15:00
7:35 PM,37.4,30.2,75,30.31,10.0,Calm,Calm,-,N/A,,Clear,0,2012-12-01 00:35:00
7:55 PM,35.6,30.2,81,30.31,10.0,Calm,Calm,-,N/A,,Clear,0,2012-12-01 00:55:00
8:15 PM,35.6,30.2,81,30.31,10.0,Calm,Calm,-,N/A,,Clear,0,2012-12-01 01:15:00
8:35 PM,35.6,30.2,81,30.31,10.0,Calm,Calm,-,N/A,,Clear,0,2012-12-01 01:35:00
8:55 PM,33.8,28.4,81,30.32,10.0,Calm,Calm,-,N/A,,Clear,0,2012-12-01 01:55:00
9:15 PM,33.8,28.4,81,30.33,10.0,NNW,3.5,-,N/A,,Clear,340,2012-12-01 02:15:00
9:35 PM,33.8,28.4,81,30.33,10.0,Calm,Calm,-,N/A,,Clear,0,2012-12-01 02:35:00
9:55 PM,33.8,30.2,87,30.33,10.0,Calm,Calm,-,N/A,,Clear,0,2012-12-01 02:55:00
10:15 PM,32.0,28.4,87,30.32,10.0,Calm,Calm,-,N/A,,Clear,0,2012-12-01 03:15:00
10:35 PM,30.2,28.4,93,30.32,10.0,Calm,Calm,-,N/A,,Clear,0,2012-12-01 03:35:00
11:15 PM,33.8,28.4,81,30.32,10.0,Calm,Calm,-,N/A,,Clear,0,2012-12-01 04:15:00
11:35 PM,30.2,26.6,86,30.32,10.0,Calm,Calm,-,N/A,,Clear,0,2012-12-01 04:35:00
11:55 PM,30.2,28.4,93,30.32,10.0,Calm,Calm,-,N/A,,Clear,0,2012-12-01 04:55:00